This demonstration page uses our WeatherBlox Daily Observations layout. Learn more.

Left ArrowRight Arrow

Hourly Observations for March 16, 2015

Temp ( °F °C ) Dew Point ( °F °C ) Humidity (%) Winds ( mph kmh ) Pressure ( in mb ) Visibility ( mi km ) Precip ( " mm )
12:53 am 00:53 Cloudy 56 13.3 52 11.1 87 87 NW 6 9 30.06 1018 10 16 0.00 0.00
1:53 am 01:53 Cloudy 56 13.3 51 10.6 84 84 NNW 3 6 30.04 1017 10 16 0.00 0.00
2:53 am 02:53 Cloudy 56 13.3 51 10.6 84 84 NNW 6 9 30.04 1017 10 16 0.00 0.00
3:53 am 03:53 Cloudy 57 13.9 49 9.4 74 74 N 8 13 30.02 1017 10 16 0.00 0.00
4:53 am 04:53 Cloudy with Light Rain 56 13.3 51 10.6 84 84 NNW 6 9 30.02 1017 10 16 0.00 0.03
5:53 am 05:53 Cloudy with Light Rain 55 12.8 50 10 83 83 N 9 15 30.03 1017 10 16 0.02 0.51
6:53 am 06:53 Cloudy with Light Rain 54 12.2 51 10.6 90 90 NNW 5 7 30.05 1018 10 16 0.03 0.76
7:53 am 07:53 Cloudy with Light Rain 54 12.2 51 10.6 90 90 N 7 11 30.05 1018 10 16 0.03 0.76
8:53 am 08:53 Cloudy with Light Rain 54 12.2 51 10.6 90 90 N 5 7 30.07 1018 9 14 0.04 1.02
9:53 am 09:53 Cloudy with Light Rain 55 12.8 52 11.1 90 90 N 6 9 30.07 1018 10 16 0.03 0.76
10:53 am 10:53 Cloudy with Light Rain 56 13.3 52 11.1 87 87 N 7 11 30.06 1018 10 16 0.02 0.51
11:53 am 11:53 Cloudy 57 13.9 53 11.7 87 87 N 7 11 30.06 1018 10 16 0.00 0.03
12:53 pm 12:53 Partly Cloudy 59 15 53 11.7 81 81 N 7 11 30.05 1018 10 16 0.00 0.00
1:53 pm 13:53 Sunny 62 16.7 54 12.2 75 75 NE 6 9 30.04 1017 10 16 0.00 0.00
2:53 pm 14:53 Sunny 63 17.2 53 11.7 70 70 NE 5 7 30.02 1017 10 16 0.00 0.00
3:53 pm 15:53 Sunny 64 17.8 53 11.7 68 68 Calm 30.01 1016 10 16 0.00 0.00
4:53 pm 16:53 Sunny 64 17.8 54 12.2 70 70 Calm 30.00 1016 10 16 0.00 0.00
5:53 pm 17:53 Mostly Sunny 64 17.8 55 12.8 73 73 Calm 29.99 1016 10 16 0.00 0.00
6:53 pm 18:53 Sunny 63 17.2 56 13.3 78 78 Calm 29.99 1016 10 16 0.00 0.00
7:53 pm 19:53 Clear 60 15.6 55 12.8 84 84 Calm 29.99 1016 10 16 0.00 0.00
8:53 pm 20:53 Mostly Clear 58 14.4 56 13.3 93 93 Calm 30.00 1016 10 16 0.00 0.00
9:53 pm 21:53 Partly Cloudy 57 13.9 55 12.8 93 93 Calm 30.01 1016 10 16 0.00 0.00
10:53 pm 22:53 Clear 57 13.9 55 12.8 93 93 Calm 30.02 1017 10 16 0.00 0.00
11:53 pm 23:53 Clear 55 12.8 53 11.7 93 93 NNW 3 6 30.01 1016 10 16 0.00 0.00

Powered by AerisWeather